Flag for Germany Weather past 2 weeks in Geesthacht, Schleswig-Holstein, Germany

Now
63 °F

Scattered clouds.


Feels Like: 63 °F
Forecast: 54 / 63 °F
Wind: 16 mph from Southwest

Location: Hamburg-Fuhlsbuettel

Current Time: Jul 29, 2015 at 3:49:01 PM

Latest Report: Jul 29, 2015 at 3:20 PM


Visibility: N/A

Pressure: 29.59 "Hg

Humidity: 64%

Dew point: 50 °F

Location of GeesthachtLocation

Historic Weather in Geesthacht — Graph

°F

Geesthacht temperature yesterday

Maximum temperature yesterday: 66 °F (at 1:50 PM)
Minimum temperature yesterday: 55 °F (at 10:50 PM)
Average temperature yesterday: 59 °F

Past Weeks' High & Low Weather Summary

 TemperatureHumidityPressure
High86 °F (Jul 17, 4:50 PM)100% (Jul 18, 6:20 AM)30.09 "Hg (Jul 18, 6:20 AM)
Low48 °F (Jul 24, 4:50 AM)36% (Jul 24, 4:50 PM)29.42 "Hg (Jul 25, 1:20 PM)
Average63 °F77%29.83 "Hg
* Reported Jul 14 2:20 PM — Jul 29 2:50 PM, Geesthacht, Weather by CustomWeather, © 2015

Note: Actual official high and low records may vary slightly from our data, if they occured in-between our weather recording intervals... More about our weather records

Advertising

Geesthacht weather history for previous 24 hours

 ConditionsComfort  
Time TempWeatherWind HumidityBarometerVisibility
2:50 PM
Wed, Jul 29
61 °FScattered clouds.17 mph63%29.59 "HgN/A
2:20 PM57 °FScattered showers. Scattered clouds.23 mph63%29.62 "HgN/A
1:50 PM64 °FScattered showers. Scattered clouds.17 mph68%29.59 "HgN/A
1:20 PM61 °FScattered showers. Scattered clouds.16 mph72%29.59 "HgN/A
12:50 PM57 °FSprinkles. Scattered clouds.12 mph82%29.59 "HgN/A
12:20 PM61 °FSprinkles. Partly sunny.16 mph68%29.59 "HgN/A
11:50 AM63 °FScattered clouds.18 mph64%29.59 "HgN/A
11:20 AM59 °FSprinkles. Broken clouds.17 mph68%29.59 "HgN/A
10:50 AM61 °FBroken clouds.18 mph72%29.62 "HgN/A
10:20 AM59 °FBroken clouds.15 mph77%29.62 "HgN/A
9:20 AM57 °FPartly sunny.15 mph88%29.62 "HgN/A
8:50 AM55 °FSprinkles. Partly sunny.14 mph94%29.62 "HgN/A
8:20 AM57 °FPartly sunny.12 mph88%29.62 "HgN/A
7:50 AM57 °FPartly sunny.14 mph88%29.62 "HgN/A
7:20 AM57 °FPartly sunny.14 mph82%29.59 "HgN/A
6:50 AM57 °FPartly sunny.16 mph82%29.59 "HgN/A
5:50 AM57 °FPassing clouds.14 mph82%29.59 "HgN/A
5:20 AM57 °FPassing clouds.14 mph82%29.59 "HgN/A
4:50 AM57 °FPassing clouds.13 mph82%29.59 "HgN/A
4:20 AM57 °FPassing clouds.13 mph88%29.59 "HgN/A
3:50 AM57 °FPassing clouds.14 mph88%29.59 "HgN/A
3:20 AM57 °FPassing clouds.15 mph88%29.59 "HgN/A
2:50 AM57 °FPassing clouds.13 mph88%29.59 "HgN/A
2:20 AM57 °FPassing clouds.13 mph82%29.59 "HgN/A
1:50 AM57 °FPassing clouds.12 mph82%29.59 "HgN/A
1:20 AM57 °FPassing clouds.13 mph82%29.62 "HgN/A
12:50 AM57 °FPassing clouds.13 mph82%29.62 "HgN/A
12:20 AM57 °FClear.13 mph82%29.62 "Hg10 mi
11:50 PM
Tue, Jul 28
57 °FClear.12 mph82%29.62 "Hg10 mi
11:20 PM57 °FClear.10 mph88%29.62 "Hg10 mi
10:50 PM55 °FPassing clouds.5 mph88%29.62 "HgN/A
10:20 PM57 °FPartly sunny.8 mph82%29.62 "HgN/A
9:50 PM59 °FPartly sunny.10 mph82%29.62 "HgN/A
9:20 PM59 °FPartly sunny.14 mph82%29.59 "HgN/A
8:50 PM59 °FSprinkles. Partly sunny.10 mph88%29.59 "HgN/A
8:20 PM59 °FSprinkles. Partly sunny.12 mph88%29.59 "HgN/A
7:50 PM59 °FSprinkles. Broken clouds.13 mph94%29.59 "HgN/A
7:20 PM61 °FSprinkles. Broken clouds.13 mph88%29.59 "HgN/A
6:50 PM61 °FSprinkles. Broken clouds.15 mph88%29.56 "HgN/A
6:20 PM61 °FScattered showers. Broken clouds.12 mph88%29.56 "HgN/A
5:50 PM59 °FRain showers. Partly sunny.15 mph94%29.56 "Hg4 mi
5:20 PM61 °FScattered showers. Broken clouds.15 mph94%29.56 "HgN/A
4:50 PM61 °FSprinkles. Scattered clouds.10 mph94%29.56 "HgN/A
4:20 PM63 °FSprinkles. Scattered clouds.17 mph83%29.56 "HgN/A
3:50 PM63 °FSprinkles. Scattered clouds.12 mph88%29.56 "HgN/A
3:20 PM61 °FSprinkles. Broken clouds.13 mph88%29.56 "HgN/A
Weather by CustomWeather, © 2015

See weather overviewHow to use our weather pages